Погода в Розе

Россия / Челябинская область     54°54′56″N   61°27′26″E
темп.,
°C
ветер,
м/с
пор.,
м/с
влажн.,
%
обл.,
%
осадки,
мм/ч
давл.,
гПа
погр.,
м
9 марта, вт
вт923:00−6юз7178143 0.0 1007448
02:00−7ююз6148792 0.0 1007369
05:00−6ююз6148796 0.0 1006504
08:00−5ююз81685100 0.0 1004589
11:00−2юз10158169 0.0 10051029
14:00−2зюз8126869 0.1 10071693
17:00−4з497982 0.1 1009371
20:00−10зсз1280100 0.0 101021
10 марта, ср
ср1023:00−11вюв1179100 0.0 101121
02:00−10в2383100 0.0 100930
05:00−10в4794100 0.1 1007193
08:00−8вюв4896100 1.2 1004315
11:00−5вюв5896100 2.4 1002426
14:00−3юв5896100 1.5 999589
17:00−3ююв5896100 3.1 997556
20:00−11ю478961 0.3 997109
11 марта, чт
чт1123:00−17юв229331 0.3 99721
02:00−18с339921 0.1 99932
05:00−15с8149361 0.4 1000602
08:00−16ссз81393100 0.3 1003668
11:00−16ссз81290100 0.6 1006730
14:00−13ссз71187100 0.1 1008874
17:00−13сз7980100 0.1 1010996
20:00−17зсз5128663 0.0 1013478
12 марта, пт
пт1223:00−18зсз6128482 0.1 1015492
02:00−23зсз598867 0.0 1016143
05:00−22зсз488983 0.0 1018152
08:00−24зсз349187 0.0 102047
11:00−16зсз368577 0.0 1020447
14:00−11з478398 0.1 1021879
17:00−9з697999 0.1 10201016
20:00−14з4108453 0.0 1022168
13 марта, сб
сб1323:00−15з5138527 0.0 1024282
02:00−15з511850 0.0 1025225
05:00−16з48850 0.0 1027125
08:00−16з413840 0.0 1028273
11:00−10зсз510830 0.0 1029486
14:00−6зсз58810 0.0 1029567
17:00−6сз47810 0.0 1029526
20:00−12зсз348319 0.0 103044